GFSSGP_850_rhum_276.txt.gz
RH
70 84 98 83 84 49 62 40 32 36 27 26 31 50 81 60 56 67 53 58 79 93 66 68 64 61 60 60 65 67 61 62 64 67 66 51 52 73 68 68 70 69 72 69 69 76 70 72 62
89 92 84 68 65 73 93 77 38 30 29 30 30 45 41 53 43 47 50 63 78 92 80 68 69 68 68 68 70 69 68 69 69 71 64 47 60 63 69 68 66 64 72 72 73 77 73 65 49
77 76 63 57 96 64 63 49 29 27 27 31 32 46 60 45 45 45 53 62 73 86 94 66 71 70 69 68 69 71 70 72 73 72 59 48 54 59 69 67 70 71 74 72 74 79 69 71 61
82 60 61 78 51 33 29 27 28 32 29 31 29 42 49 45 48 51 52 59 66 73 80 66 69 70 68 67 68 70 72 72 73 70 54 51 62 73 74 72 66 73 72 75 73 77 75 74 76
56 75 73 61 28 27 23 23 24 22 24 26 35 48 53 53 52 49 51 54 58 78 67 59 65 67 66 64 63 65 66 66 67 59 60 54 57 65 69 67 67 70 71 69 73 72 75 69 69
52 73 74 57 28 35 22 20 20 20 22 26 34 45 57 58 53 48 48 52 73 70 70 56 65 67 65 61 55 55 55 56 51 69 72 64 52 52 65 62 72 69 72 71 68 72 69 67 66
35 55 49 40 31 29 27 21 26 19 20 23 31 46 56 57 49 47 48 55 70 81 82 57 64 65 58 48 48 50 39 42 58 74 61 78 54 52 49 58 60 64 66 70 69 68 66 60 60
23 54 71 45 31 36 23 22 21 22 22 23 27 44 56 53 47 45 47 55 65 74 72 77 75 57 45 41 48 40 44 35 38 82 67 67 64 66 51 52 59 66 71 54 61 70 74 72 69
32 77 61 30 33 34 27 23 27 34 24 24 29 36 53 49 44 44 49 55 68 72 74 83 94 61 50 80 78 68 50 40 32 48 66 62 76 78 79 74 78 60 64 57 51 53 62 65 66
45 88 70 27 23 25 24 26 42 47 54 28 38 48 51 46 42 45 51 56 59 66 61 69 78 88 75 85 70 76 62 62 54 51 53 65 89 93 86 82 78 63 54 57 58 58 56 54 68
58 59 44 29 18 22 32 26 35 51 87 52 37 45 48 44 41 48 60 57 59 54 55 62 68 72 74 70 74 63 64 88 78 83 75 83 87 86 89 84 82 57 52 54 76 59 58 74 86
21 22 17 18 18 24 33 26 29 26 26 30 37 42 45 44 42 49 53 60 59 54 51 61 62 65 66 68 74 66 56 73 72 70 61 82 80 78 80 76 83 77 83 89 90 76 96 88 84
17 23 18 16 17 17 26 38 30 50 47 33 37 40 42 42 40 46 51 59 59 54 49 52 59 60 62 62 64 65 70 72 63 75 74 75 75 73 77 74 75 75 74 75 78 79 88 88 81
14 20 19 16 14 14 15 15 25 48 40 33 38 40 40 40 41 40 45 58 60 54 48 51 57 56 68 67 66 60 72 60 62 60 74 67 65 77 80 80 76 75 73 78 78 74 73 81 85
12 16 14 17 14 15 17 21 22 42 28 32 35 38 40 42 41 42 41 45 52 51 49 51 57 65 65 69 69 69 66 57 62 63 65 70 64 71 85 84 82 76 77 77 83 80 87 81 82
12 12 19 19 15 16 16 31 47 34 23 30 31 35 37 40 41 45 45 44 44 45 49 54 59 62 69 73 72 67 64 60 57 59 62 67 68 64 77 81 86 81 79 79 83 88 88 89 86
12 16 18 21 16 16 17 26 36 34 23 27 30 35 36 40 41 45 47 47 49 48 50 56 60 61 67 68 69 67 67 60 60 60 64 66 68 67 65 79 82 83 83 84 95 84 83 86 92
18 16 22 18 18 14 13 13 23 24 21 25 30 33 36 40 42 46 49 50 51 52 55 58 62 58 70 70 69 73 67 70 61 59 64 66 66 70 67 71 80 78 78 91 96 91 83 80 94
11 16 19 15 14 14 13 12 11 10 17 16 28 30 37 40 43 45 51 52 53 56 57 62 66 68 72 76 74 67 78 63 65 64 63 75 66 66 62 81 76 81 80 80 79 82 84 82 86
11 12 14 12 9 12 12 13 11 10 10 15 15 31 35 39 42 45 50 53 56 59 63 70 72 72 75 76 78 75 70 74 62 64 63 69 69 66 55 78 82 70 74 74 75 76 77 87 84
10 11 12 12 12 12 11 15 15 11 10 15 12 17 30 37 41 45 47 51 57 59 66 73 77 75 74 75 76 80 74 71 70 67 71 67 67 66 60 62 73 67 66 68 80 86 76 82 84
10 9 10 11 15 17 10 22 19 16 14 12 10 12 18 33 39 43 46 48 52 57 64 69 78 81 78 71 84 82 82 78 76 77 75 74 70 70 44 59 72 62 65 65 67 79 77 80 76
6 8 9 10 12 12 12 13 13 17 17 11 12 13 16 28 33 38 42 45 47 53 58 65 75 80 84 85 82 88 86 81 80 79 79 78 77 62 51 62 67 68 70 72 66 67 81 87 76
4 6 9 10 12 16 12 12 26 69 52 12 12 13 16 21 25 30 36 40 44 46 53 61 66 74 80 86 87 87 91 83 83 79 79 79 81 76 60 67 67 69 78 80 78 72 73 82 85
4 6 13 16 17 16 10 12 17 18 16 11 12 13 15 16 21 24 28 34 39 42 48 54 63 69 73 80 86 84 86 86 85 82 85 91 85 79 64 63 64 63 68 80 78 75 71 72 80
4 5 11 18 16 14 11 15 20 15 13 9 9 12 13 14 15 18 23 29 33 38 42 49 55 66 72 78 84 88 87 88 87 83 87 85 93 91 84 72 74 68 74 80 78 80 76 72 74
5 6 5 7 7 10 18 27 19 19 9 9 8 9 12 13 14 15 20 23 30 35 41 45 52 62 71 81 87 88 86 89 90 90 92 87 90 87 86 90 79 75 76 80 79 76 81 75 73
4 3 6 5 12 14 15 28 42 23 12 9 9 8 10 11 11 14 17 21 26 32 39 47 51 62 67 77 84 86 86 88 88 88 90 89 92 88 92 91 80 75 77 75 72 78 80 74 70
4 5 4 4 5 8 11 24 16 24 12 10 8 8 10 11 12 13 15 20 26 31 36 45 51 56 66 79 80 85 86 85 89 94 91 86 90 91 89 86 80 82 83 72 74 81 84 80 78
4 4 4 6 8 6 7 13 12 14 10 8 8 9 13 15 16 16 17 21 26 32 37 45 53 59 66 71 77 80 82 84 86 92 91 93 88 92 88 87 94 84 89 78 82 83 76 69 75

GFSSGP_850_rhum_279.txt.gz
RH
69 86 96 100 91 86 82 74 52 41 44 47 40 47 42 52 59 75 76 75 60 61 65 64 63 61 54 54 57 58 62 62 64 61 51 51 67 63 64 65 60 61 61 65 68 77 77 71 49
74 97 93 86 89 84 83 73 47 36 51 46 45 49 54 57 55 75 88 70 57 60 62 62 55 56 54 58 63 59 64 67 67 63 50 55 57 60 64 61 63 72 66 69 72 74 61 49 30
72 92 79 96 92 80 79 56 46 32 33 47 54 48 48 47 62 71 76 70 58 64 62 61 62 60 61 63 64 65 67 69 72 62 50 49 56 59 64 61 62 68 71 72 75 59 52 28 33
81 60 72 82 75 56 38 41 30 31 31 46 48 51 48 48 59 63 71 62 65 67 66 64 67 66 64 64 64 65 67 70 72 62 51 57 64 69 63 63 63 70 68 71 72 66 69 39 79
55 63 79 78 59 31 28 29 30 34 35 46 50 54 57 52 58 65 64 64 58 68 65 66 65 65 64 64 66 68 66 65 62 56 55 66 58 66 69 69 68 70 74 66 68 62 62 52 68
63 65 84 79 40 29 24 24 21 24 34 51 54 56 58 52 60 61 65 68 49 55 57 58 61 62 61 60 63 62 60 56 50 65 58 52 52 61 66 73 70 71 72 64 63 62 59 55 35
62 77 84 83 54 36 26 23 22 22 31 39 48 60 60 54 51 59 63 63 70 63 49 53 57 57 57 53 54 54 52 44 51 59 52 53 48 53 52 61 72 71 73 59 58 59 62 62 48
43 83 78 69 49 39 26 31 31 33 33 38 39 59 62 53 50 54 61 67 71 70 59 53 52 52 47 43 46 44 40 42 55 52 55 47 64 57 45 55 62 78 56 66 64 66 59 58 58
40 71 78 55 37 34 28 32 38 40 35 42 38 49 52 47 53 58 70 80 73 72 69 58 50 46 37 39 40 38 37 32 50 66 61 56 72 79 70 51 57 66 62 49 57 64 67 67 66
45 75 64 42 26 28 34 42 46 42 46 48 53 49 49 46 53 60 66 77 76 68 71 53 47 42 36 66 60 48 35 35 34 42 60 75 85 91 86 78 76 63 59 58 54 50 55 63 63
45 47 37 36 28 33 39 42 46 49 53 43 53 53 48 45 52 58 60 63 66 68 74 67 50 35 40 72 63 66 55 52 50 54 70 70 75 80 84 88 84 70 56 54 77 56 61 72 80
40 36 34 30 26 25 28 51 62 45 48 42 50 50 46 44 49 53 58 65 63 69 68 67 65 50 66 80 69 56 56 53 57 64 64 78 84 78 80 82 74 63 76 80 81 82 70 78 88
35 29 19 18 17 16 30 40 52 55 63 49 48 48 46 43 49 50 52 49 52 57 60 63 66 59 67 70 66 52 65 62 67 71 69 74 77 71 77 76 69 74 80 81 82 84 83 83 80
15 19 18 17 17 15 31 37 38 43 38 43 44 47 45 42 49 50 51 50 54 56 56 61 61 58 62 65 62 59 68 66 69 70 72 69 77 66 68 75 71 79 77 82 80 87 83 81 83
13 16 19 17 16 16 37 47 52 36 29 42 50 44 44 43 44 49 50 55 50 53 58 57 57 55 63 65 60 60 64 67 69 64 65 72 64 72 70 74 75 78 83 81 86 87 87 88 82
15 14 21 20 18 16 17 42 52 41 32 59 60 46 40 41 41 41 50 54 52 51 54 53 55 56 60 70 71 69 69 74 63 66 65 66 70 68 70 71 73 70 79 85 85 86 89 89 91
16 22 21 24 19 19 20 30 40 59 60 71 46 44 43 42 41 41 49 54 52 52 53 51 54 57 57 61 66 68 65 66 68 62 61 63 70 70 66 65 74 77 78 81 83 83 86 90 93
24 22 23 24 22 20 24 22 27 28 50 61 35 35 49 41 42 43 44 46 47 50 54 58 59 60 59 61 55 50 62 62 65 66 70 74 72 70 67 59 64 77 78 79 76 84 89 81 84
15 17 24 23 20 20 18 15 24 32 36 51 55 42 47 40 42 44 46 47 48 48 55 53 58 61 62 66 64 66 59 48 59 68 65 62 71 72 68 66 60 69 76 73 80 84 86 84 82
14 15 16 19 15 18 18 17 14 16 29 36 50 50 39 41 44 46 48 49 50 51 52 58 56 59 61 64 70 70 67 61 62 61 67 64 63 70 72 69 61 66 71 76 78 80 77 81 88
12 13 14 15 14 14 16 22 20 16 17 28 31 26 42 42 43 47 50 51 52 53 54 56 62 62 64 64 75 78 72 73 77 65 68 66 64 62 66 69 56 66 63 67 73 75 71 72 85
7 5 8 12 16 25 17 31 27 22 18 27 25 43 43 43 43 45 49 52 53 54 57 58 61 68 70 70 80 81 77 74 72 77 68 66 69 69 68 68 62 52 64 60 65 70 73 78 79
6 5 6 10 15 19 17 20 33 29 28 29 24 32 41 42 41 44 46 48 51 53 57 59 64 66 68 66 69 79 72 70 65 70 72 70 73 74 71 67 58 61 68 64 65 71 72 71 80
4 5 8 10 18 29 22 20 31 38 31 26 19 19 39 40 41 42 44 46 50 52 54 58 61 64 68 69 71 74 75 77 77 76 77 81 76 75 72 74 60 58 70 72 75 76 77 75 75
6 6 16 22 25 30 19 19 23 35 27 21 19 26 36 36 37 39 42 44 45 48 51 54 58 62 64 68 71 74 78 81 80 78 78 85 83 79 74 75 71 60 67 76 75 76 81 77 75
7 7 16 22 30 22 16 28 30 28 27 22 18 23 27 30 26 30 33 37 40 43 46 50 52 57 62 65 70 75 79 85 88 81 78 86 84 80 82 82 82 69 67 70 74 79 78 75 74
7 9 8 8 8 14 19 21 22 21 22 21 19 17 16 20 24 25 28 32 36 40 43 47 49 52 57 62 70 76 80 83 87 90 90 86 85 84 78 69 71 84 81 81 75 82 86 78 78
6 7 9 12 14 18 15 34 34 21 18 22 20 16 16 15 20 24 23 26 31 36 40 43 49 52 55 63 71 74 83 82 84 87 89 91 89 92 81 82 82 84 83 81 81 85 80 80 80
7 8 7 8 11 16 17 27 27 29 25 23 18 14 14 14 15 17 19 25 30 34 39 43 50 53 61 68 72 81 82 82 86 88 90 91 91 90 91 90 82 84 81 78 78 70 73 82 78
6 8 8 14 13 15 16 16 20 21 19 17 16 17 13 14 15 17 20 24 28 32 36 40 44 49 56 64 69 76 84 84 83 84 88 92 93 89 87 84 82 80 77 80 80 76 76 81 81

GFSSGP_850_rhum_285.txt.gz
RH
78 89 90 97 88 83 80 82 68 54 53 51 47 53 59 62 61 72 76 59 58 58 60 64 60 56 56 55 57 56 53 49 48 48 48 53 47 45 54 62 58 71 70 76 70 64 34 72 72
67 65 84 89 84 80 80 76 62 55 48 48 47 52 59 81 86 86 82 62 58 59 61 76 72 60 56 54 52 51 49 48 45 50 58 59 59 50 55 64 67 71 72 71 73 66 31 72 56
57 67 75 89 89 78 72 63 54 50 49 48 51 52 63 97 95 75 65 68 59 61 62 64 78 61 60 58 55 54 54 46 45 46 55 60 62 53 55 65 62 68 74 70 60 46 34 64 62
82 87 82 86 76 67 60 53 52 53 47 51 52 62 67 75 56 63 66 61 60 61 64 64 75 58 58 57 56 58 59 50 44 47 52 59 60 50 59 63 66 66 75 65 56 34 51 65 75
66 73 83 78 68 61 49 44 51 55 50 49 52 70 82 71 58 54 54 58 58 62 64 64 76 57 59 57 61 63 61 54 46 50 53 52 55 53 59 70 66 69 78 58 32 30 70 75 76
74 70 83 85 61 53 42 44 49 50 54 56 61 67 78 62 64 66 58 54 57 55 58 60 58 61 64 64 72 76 66 59 48 50 45 54 51 53 57 62 68 67 66 60 35 68 76 72 77
81 64 78 81 63 63 43 46 51 54 54 54 57 75 91 77 65 62 60 56 56 53 50 54 59 64 66 72 93 75 64 56 48 50 41 50 57 57 58 61 72 60 68 67 55 75 74 78 81
62 67 75 76 69 57 40 38 44 48 52 54 56 81 97 86 73 72 64 61 58 56 56 57 62 65 68 83 86 70 60 54 52 48 42 43 46 57 66 60 77 65 61 63 66 55 68 73 75
52 63 62 66 61 51 43 37 41 49 54 52 56 54 59 77 82 76 70 69 65 64 62 62 59 60 75 82 75 61 53 74 52 52 43 52 44 46 54 61 66 67 57 59 63 62 40 54 74
51 72 51 42 38 45 42 39 44 48 53 56 60 62 65 81 77 66 67 68 65 62 64 62 59 56 60 67 62 53 44 59 58 57 51 66 52 44 47 57 64 57 57 61 59 65 58 48 55
45 46 40 37 36 38 41 46 41 52 57 56 67 78 78 83 74 58 54 46 48 47 53 54 55 55 48 45 46 43 39 45 56 58 72 78 75 73 60 61 70 63 48 56 65 64 64 63 66
44 36 38 42 41 42 45 39 40 42 46 55 55 68 73 78 75 68 58 58 61 59 59 55 54 49 41 38 38 36 32 34 58 54 71 76 81 79 77 80 70 55 55 56 52 57 66 65 66
41 37 31 35 32 36 38 44 42 50 53 59 61 72 77 76 70 70 63 67 68 68 64 62 55 46 33 35 35 37 30 33 39 48 74 72 72 77 78 77 68 57 60 76 62 59 58 60 64
14 22 24 32 36 39 42 46 46 54 52 56 65 77 78 72 68 72 73 73 71 67 59 52 48 43 31 39 47 42 40 44 56 55 71 69 70 73 69 59 54 73 73 76 81 74 73 74 80
13 18 21 36 40 41 42 52 46 39 49 53 54 62 70 69 69 63 64 66 65 62 59 56 56 48 34 39 47 48 54 54 65 68 70 70 69 70 74 67 67 74 76 82 85 87 87 86 85
20 20 24 36 40 39 36 45 43 37 47 50 51 53 57 61 62 62 60 61 65 64 63 62 62 60 44 44 57 58 65 62 65 69 73 73 69 72 73 73 70 70 74 76 77 84 85 92 92
26 26 25 24 38 41 40 33 34 37 50 56 54 54 52 54 57 57 59 58 59 61 66 65 71 66 51 54 63 57 67 69 69 68 72 74 75 73 73 73 74 74 73 75 78 83 85 89 93
26 26 23 25 24 29 40 40 41 45 50 57 57 54 53 51 52 53 54 57 56 59 61 63 59 67 64 60 63 64 64 65 71 77 75 74 76 74 73 74 75 80 78 76 75 82 85 81 90
21 23 24 20 16 18 23 31 45 46 50 54 53 56 54 49 46 49 50 52 57 60 61 61 64 67 69 63 63 66 67 69 74 75 71 71 70 71 74 74 74 75 77 77 78 82 77 81 85
19 19 18 18 16 26 29 29 42 48 44 49 47 51 50 52 49 46 48 50 54 56 58 58 60 65 67 63 63 65 62 65 67 71 67 72 74 68 73 76 73 71 68 69 75 77 79 78 81
14 17 16 16 12 15 22 30 39 46 45 45 50 46 39 38 48 48 46 47 48 51 54 56 55 58 63 62 66 68 69 74 74 72 68 66 71 72 73 74 75 75 73 70 72 73 74 78 76
14 10 12 12 9 13 20 38 26 41 52 49 50 50 44 36 33 48 46 46 45 45 50 56 58 58 61 62 63 67 67 68 66 63 67 69 72 71 70 73 76 76 75 69 68 71 72 74 77
10 8 8 8 10 20 19 29 27 34 41 47 43 46 39 41 34 39 46 44 44 45 47 51 55 58 59 60 66 68 69 67 64 65 62 61 65 68 70 73 75 73 74 74 65 69 67 69 78
7 7 9 18 22 17 18 27 27 32 34 36 41 41 37 40 36 38 43 43 44 45 48 50 51 52 57 59 63 66 68 70 69 69 66 66 69 66 70 74 74 75 77 76 70 67 68 71 74
7 11 15 13 15 15 18 25 23 20 29 29 32 32 35 40 38 37 40 44 44 46 48 49 51 52 54 58 61 63 66 70 71 68 68 71 72 73 75 76 76 77 81 81 80 68 74 72 81
9 11 15 12 15 14 18 15 15 22 25 21 22 24 29 31 39 36 30 35 42 45 46 50 52 53 55 57 59 63 67 72 75 73 70 74 75 73 73 75 76 76 85 86 87 84 82 80 82
9 10 10 14 17 15 15 17 28 26 23 25 27 30 38 24 31 32 33 35 39 42 44 47 50 53 55 56 60 64 67 71 74 77 77 81 78 79 80 76 78 81 77 83 84 97 80 79 82
8 8 10 15 12 13 16 17 28 18 27 26 26 23 27 32 32 34 37 36 33 37 39 43 46 48 50 56 61 65 64 69 73 79 83 85 86 87 85 82 80 82 79 82 83 88 91 86 83
10 10 11 13 16 16 16 18 19 25 22 22 24 20 19 30 26 31 28 32 32 40 38 36 41 45 49 52 56 61 64 67 74 79 85 91 94 95 88 75 76 82 84 87 91 85 91 93 89
8 9 11 14 12 19 18 16 11 17 20 24 20 20 17 18 26 23 24 26 30 37 35 33 36 41 43 46 52 58 63 71 78 84 85 92 94 94 92 87 88 92 92 97 91 87 82 82 79

GFSSGP_850_rhum_291.txt.gz
RH
75 83 90 97 74 62 67 64 62 50 46 49 49 48 49 57 50 56 73 56 47 61 68 76 72 73 76 74 74 72 69 62 56 48 47 48 51 59 55 54 65 66 71 69 72 66 45 49 60
80 88 95 94 60 61 61 60 59 45 42 51 46 56 56 59 87 75 85 51 49 54 61 66 63 69 67 66 69 68 58 55 49 48 47 48 65 65 54 69 74 75 73 75 47 74 54 46 41
77 94 90 69 69 66 58 49 49 50 50 47 43 59 66 79 99 84 76 50 51 53 62 59 60 60 60 58 58 57 53 49 48 52 60 75 74 66 72 73 77 76 75 36 81 82 50 38 79
90 88 87 64 61 58 54 48 48 49 48 44 52 58 84 98 95 86 55 53 50 53 60 53 56 59 58 58 55 51 50 50 50 59 63 72 64 76 78 70 80 73 82 38 80 74 66 48 57
87 81 62 57 54 50 48 45 49 47 45 47 53 63 89 99 88 69 58 61 50 56 58 54 54 56 56 54 52 52 49 48 53 60 63 66 65 76 63 68 79 77 68 41 72 63 80 73 71
69 64 60 56 48 45 44 46 47 48 50 57 54 58 89 94 70 88 82 73 56 54 82 70 59 56 57 55 56 59 52 48 52 57 62 54 64 67 73 68 76 80 73 38 75 71 75 76 76
60 54 61 60 53 49 43 48 49 50 50 53 54 63 98 98 70 76 93 77 64 57 80 80 75 62 61 59 58 63 58 48 50 63 75 53 60 68 74 72 78 79 63 35 77 73 73 74 72
63 54 54 51 52 44 41 43 50 52 52 59 56 64 83 98 71 73 75 79 76 64 62 85 92 63 60 60 66 72 65 50 72 52 69 76 74 72 71 69 81 74 75 58 73 76 75 78 73
55 40 46 44 47 38 39 39 46 53 54 55 59 65 63 77 75 79 78 72 77 75 65 66 67 60 56 60 76 76 63 53 70 56 78 72 70 75 72 71 68 72 74 59 80 76 72 72 75
38 54 40 35 38 36 36 38 39 53 54 63 82 74 73 75 80 83 68 70 90 91 68 69 59 60 62 70 82 81 62 64 51 54 52 67 56 68 76 72 71 71 74 70 67 70 69 71 76
39 34 30 31 34 35 34 38 40 45 56 57 71 98 88 81 96 87 82 80 74 65 75 58 55 57 62 71 82 84 55 80 54 51 48 60 50 57 90 74 71 68 69 77 80 70 50 62 70
31 29 32 29 37 38 38 40 39 46 41 49 68 69 91 92 91 82 78 74 80 64 50 54 57 59 60 66 73 74 48 46 64 57 59 70 52 49 59 77 83 80 70 66 63 62 62 50 53
28 21 20 25 34 40 41 37 35 39 50 53 76 92 82 80 75 76 72 75 65 60 51 50 58 58 54 59 56 51 43 38 56 54 67 77 77 72 57 65 66 60 61 69 66 65 64 63 67
19 17 17 22 31 40 39 40 42 59 63 73 80 85 84 73 67 79 68 47 50 50 48 52 56 55 53 49 46 42 40 35 46 52 53 73 82 84 80 80 80 56 60 59 61 63 67 74 69
15 18 19 32 39 37 40 36 37 58 72 76 72 79 83 84 82 49 46 43 46 48 48 51 54 54 53 48 44 42 37 33 34 48 51 70 75 80 82 80 78 54 59 74 78 70 65 73 76
19 19 20 17 38 40 35 35 35 59 63 68 69 75 82 84 68 57 52 54 49 53 56 58 60 59 55 50 39 38 36 34 32 41 46 69 71 76 79 71 63 67 62 73 80 85 90 90 91
19 20 21 18 29 38 37 28 34 53 56 64 71 70 73 82 82 60 55 56 56 58 59 62 63 55 54 51 42 36 40 39 37 50 56 67 70 73 75 77 68 71 75 76 77 81 86 88 91
20 20 21 20 15 23 25 26 20 44 47 53 69 69 73 76 76 58 57 58 60 60 61 64 62 59 53 54 48 35 50 49 48 55 65 68 69 70 70 72 75 78 76 76 76 79 80 84 93
19 21 21 16 13 13 11 13 13 16 38 45 53 64 70 73 73 66 57 60 68 63 63 66 65 58 59 58 52 35 48 54 58 51 64 69 72 72 71 71 71 73 72 76 79 82 81 86 88
18 19 17 13 11 11 12 14 15 30 36 40 44 53 58 65 71 76 60 64 63 60 60 66 64 58 56 62 52 36 52 57 63 61 63 68 71 64 67 67 71 72 73 72 75 76 80 82 87
16 17 14 11 10 10 14 12 14 21 37 40 43 45 50 55 63 71 67 62 64 57 58 62 62 61 55 61 60 42 56 55 64 66 68 70 73 73 68 64 66 72 73 73 75 78 78 81 83
18 10 10 9 9 10 11 10 18 19 21 29 34 42 46 52 57 64 67 62 56 50 51 58 62 62 63 62 63 52 53 58 57 59 60 62 69 69 67 64 65 69 71 73 76 79 80 81 80
11 8 8 9 9 11 13 15 10 22 14 10 12 32 39 49 50 54 60 51 44 50 49 49 56 59 60 62 64 61 58 57 59 61 61 64 65 68 70 68 65 62 66 70 76 79 81 82 86
8 8 10 12 11 11 12 16 10 11 17 13 12 26 38 45 48 49 57 57 54 51 49 51 52 55 60 59 61 61 60 61 61 62 65 66 68 72 74 73 69 67 67 69 73 76 81 86 83
8 8 12 14 12 11 15 19 11 9 11 14 16 23 36 46 46 45 52 50 44 50 47 47 48 51 55 58 59 60 60 63 62 63 64 70 71 74 74 69 71 64 66 69 72 74 80 80 84
9 7 10 17 14 10 16 11 7 9 10 21 24 25 30 39 41 41 44 35 34 37 44 46 45 47 50 54 55 58 60 61 61 62 65 68 73 73 71 68 63 67 68 69 74 76 79 92 98
10 10 7 9 12 11 10 11 9 13 11 12 17 20 29 38 39 40 38 38 34 33 37 41 43 46 47 50 53 55 58 60 59 60 63 66 69 75 75 73 74 75 76 74 72 79 84 80 85
8 8 9 11 16 14 12 15 10 14 12 12 12 10 17 38 34 40 35 30 32 26 32 38 40 42 43 46 48 51 53 55 57 60 62 65 67 73 81 76 78 81 85 88 84 86 84 85 86
9 9 11 10 11 12 12 10 11 15 14 13 10 12 17 17 33 25 33 28 31 25 26 32 38 42 43 44 46 48 51 53 56 58 61 67 69 73 77 78 82 86 88 85 80 85 82 85 87
9 8 9 11 16 14 14 10 11 18 23 23 21 20 25 27 16 38 25 27 30 29 28 29 33 36 37 40 44 46 50 54 57 58 60 64 68 69 79 84 85 88 84 91 82 81 82 83 81